Theta_e
289 289 289 289 289 289 288 288 288 288 288 288 288 288 288 288 288 288 288 288 288 288 288 288 288 288 288 288 288 288 288 288 288 288 288 288 288 288 288 288 289 289 290 291 293 294 295 296 297 298 297 297 296 295 295 295 295 295 295 295 295 295 295 294 294 295 295 295 294 295 295 295 295 296 296 297 297 298 299 299 299 300 300 299 299
289 289 289 289 289 289 289 289 289 289 289 289 289 289 289 289 289 289 289 288 288 288 288 288 288 288 288 288 288 288 288 288 287 287 287 287 287 287 287 287 287 288 288 288 289 290 292 293 294 295 296 297 297 296 295 295 294 294 295 295 295 295 295 294 294 294 295 295 294 294 294 294 294 295 295 296 296 297 297 298 299 299 299 299 299
289 289 289 289 289 289 289 289 289 289 289 289 289 289 289 289 289 289 289 289 289 289 288 288 288 288 288 288 288 288 288 288 288 288 287 287 287 287 287 287 287 287 287 287 287 288 288 289 290 291 293 294 295 296 296 296 295 294 294 294 294 294 294 294 294 294 294 295 294 294 294 294 294 294 295 295 296 296 296 297 297 298 299 299 299
290 290 290 290 290 290 289 290 290 289 289 289 289 289 289 289 289 289 289 289 289 288 288 288 288 289 289 289 289 289 289 289 288 288 288 288 288 287 287 287 287 287 286 286 286 286 286 287 288 288 289 290 292 293 294 296 296 295 295 294 294 294 294 293 293 294 294 294 294 294 293 293 294 294 294 294 295 295 296 296 297 297 298 298 298
290 290 290 290 290 290 290 290 290 290 289 289 289 289 289 289 289 289 289 288 288 288 288 288 288 288 288 288 288 288 288 288 288 288 288 288 288 288 287 287 287 287 287 287 287 286 286 286 286 287 287 288 288 289 291 292 294 295 296 295 294 294 293 293 293 293 293 293 294 293 293 293 293 293 293 294 294 295 295 296 296 296 297 297 298
290 290 290 290 290 290 290 290 290 289 289 289 289 289 289 289 289 288 288 288 288 288 288 288 288 288 288 288 288 288 288 288 288 288 288 287 287 287 287 287 287 287 287 287 287 287 287 286 286 286 286 286 287 287 288 289 290 292 294 295 295 294 293 293 292 292 293 293 293 293 293 293 292 293 293 293 293 294 295 295 296 296 296 297 297
290 290 290 290 290 290 290 290 290 289 289 289 289 289 289 288 288 288 288 288 288 288 288 288 288 288 288 288 287 287 287 287 287 287 287 287 286 286 286 286 286 286 287 287 287 287 287 287 287 287 286 286 286 286 286 287 288 289 290 292 294 294 294 293 293 292 292 292 293 292 292 292 292 292 292 293 293 293 294 294 295 295 296 296 296
290 290 290 290 290 290 290 290 289 289 289 289 289 289 288 288 288 288 288 288 288 288 287 287 287 287 287 287 287 287 287 287 287 286 286 286 286 286 286 286 286 286 286 286 286 286 287 287 287 287 287 287 287 286 286 286 286 287 288 289 291 293 294 294 293 292 292 292 292 292 292 291 291 292 292 291 292 292 293 293 294 295 295 296 296
290 290 290 290 290 290 290 290 289 289 289 289 289 288 288 288 288 288 288 287 287 287 287 287 287 287 287 286 286 286 286 286 286 286 286 286 285 285 285 285 285 285 285 285 286 286 286 286 286 286 287 287 287 287 287 286 286 286 286 287 288 290 292 293 293 292 292 291 292 292 291 291 291 291 291 291 291 292 292 292 293 294 295 295 295
290 289 289 289 289 289 289 289 289 289 289 289 288 288 288 288 288 287 287 287 287 287 287 286 286 286 286 286 286 286 286 286 286 286 285 285 285 284 284 284 284 283 284 284 285 285 285 285 286 286 286 286 286 286 287 287 286 286 286 286 286 287 289 291 293 293 292 291 292 292 290 290 291 291 290 291 291 291 291 292 292 293 293 294 294
288 288 288 288 288 288 288 288 288 288 288 288 288 288 287 287 287 286 286 286 286 286 285 285 285 285 285 285 285 285 285 286 286 285 285 285 284 283 283 283 282 282 282 283 283 284 284 285 285 285 285 286 286 286 286 286 287 286 286 286 286 286 286 288 290 292 292 292 292 292 291 290 291 291 290 290 290 290 290 291 291 292 292 293 293
288 288 288 287 287 287 287 287 287 287 287 287 287 286 286 285 285 285 284 284 284 284 284 284 284 284 284 284 284 284 284 285 285 284 284 284 283 282 281 281 282 282 282 282 282 283 283 284 284 284 285 285 285 285 285 286 286 286 286 286 286 286 285 286 287 289 291 292 293 293 292 292 292 291 289 289 290 290 290 290 290 291 291 292 292
288 288 287 287 287 287 287 287 286 286 286 285 285 284 284 284 284 283 283 283 283 283 283 283 283 283 283 283 283 283 284 284 284 284 283 282 282 281 280 280 281 281 281 282 282 282 282 283 283 283 284 284 284 284 285 285 285 285 286 286 286 286 286 286 286 286 288 290 292 293 293 293 293 292 291 289 289 289 289 289 290 290 290 291 291
287 287 287 287 286 286 286 286 285 285 284 284 283 283 283 283 283 282 282 283 282 282 282 282 282 282 282 282 282 282 283 283 283 283 282 281 281 280 279 279 280 280 280 281 281 281 281 281 281 282 283 283 283 284 284 284 284 285 285 285 286 286 286 286 286 286 286 288 290 291 291 292 293 294 292 290 289 289 289 289 289 289 290 290 290
287 287 286 286 286 286 285 285 284 283 283 283 283 283 283 282 282 282 282 282 282 281 281 281 282 282 281 281 281 281 282 282 282 281 281 280 280 279 278 279 279 279 280 280 280 280 280 281 280 281 281 282 282 282 283 283 283 284 284 284 285 285 286 286 286 286 286 286 287 288 288 290 292 293 292 290 289 289 289 289 289 289 289 289 289
286 286 286 286 285 285 284 284 283 283 283 283 283 282 282 282 281 281 281 281 281 280 281 280 281 281 281 280 280 280 281 281 280 280 279 279 278 277 277 277 277 278 279 279 279 279 279 280 280 280 280 281 281 281 281 281 282 282 282 283 284 284 285 286 286 286 286 286 286 286 286 288 291 293 292 290 289 289 288 288 288 288 288 288 288
286 285 285 285 284 283 283 283 283 282 282 282 282 281 281 281 280 280 280 280 280 280 280 280 280 280 279 279 278 279 280 280 279 278 277 277 276 275 275 276 276 277 277 278 278 278 278 278 279 279 279 280 280 280 280 281 281 281 281 282 283 283 284 285 286 286 286 286 286 286 286 286 288 291 292 291 290 289 289 288 288 288 288 288 288
285 285 284 283 283 282 282 282 281 281 281 281 280 280 280 280 279 279 279 279 280 280 279 279 279 279 278 277 277 276 278 278 277 275 275 275 274 273 273 274 274 275 276 276 276 276 277 277 277 277 278 279 279 280 280 280 281 281 281 281 281 282 283 284 285 286 286 286 286 286 286 286 287 289 291 291 290 289 289 289 288 288 287 287 288
284 283 282 282 282 281 281 280 280 280 279 279 279 279 279 279 279 279 279 279 279 279 278 278 279 278 276 275 275 274 274 275 274 273 273 273 272 271 271 272 272 273 273 274 274 274 275 276 276 276 277 278 278 279 280 280 281 281 282 282 281 281 282 283 284 285 286 286 286 285 286 286 286 287 289 291 290 289 289 289 289 288 287 287 287
283 282 281 281 281 280 279 279 279 278 278 278 278 279 278 278 278 278 278 278 278 278 277 276 276 276 274 273 273 272 272 272 272 271 270 270 270 269 270 270 271 271 271 272 272 273 273 274 274 275 276 277 277 278 279 280 280 281 282 282 282 282 282 282 282 284 285 285 285 285 285 285 285 286 288 290 290 290 289 289 289 288 288 288 287
282 281 281 280 280 279 278 278 278 278 278 278 278 278 278 278 277 277 277 277 276 276 276 274 274 273 272 271 271 271 270 270 270 269 269 269 268 268 269 269 269 270 270 271 271 272 272 273 273 274 275 276 277 278 278 279 279 280 281 282 282 283 283 282 282 282 284 284 284 285 285 284 284 285 286 288 290 290 290 289 288 288 288 288 288
281 281 280 280 279 278 278 277 277 277 277 277 277 277 277 277 276 276 276 276 275 274 273 272 271 271 270 270 270 269 269 269 269 268 268 268 268 268 268 268 269 269 270 270 270 271 272 272 272 273 274 276 277 278 279 279 280 280 281 282 282 283 283 283 283 282 283 284 284 284 284 284 284 284 285 286 288 290 290 289 288 288 288 288 288
280 280 280 279 278 277 277 277 277 277 277 276 276 276 276 276 275 275 274 273 273 272 271 270 270 269 269 269 269 269 268 268 268 268 267 267 267 267 268 269 269 270 270 270 270 270 270 271 271 272 273 274 275 276 277 278 279 280 281 281 282 283 283 284 283 283 284 284 284 284 284 284 283 284 284 285 286 288 288 288 288 287 287 288 288
280 279 279 278 277 277 277 277 276 276 276 276 275 275 275 275 274 273 272 271 271 270 270 269 269 268 268 268 268 268 268 267 267 267 267 267 267 267 268 269 269 270 270 270 270 270 270 270 271 272 272 273 274 275 276 277 277 278 279 280 281 282 283 283 283 284 285 285 285 285 285 284 283 284 285 285 285 286 286 287 287 287 287 287 287
279 279 278 277 277 277 276 276 276 276 275 275 275 274 274 273 272 271 270 270 269 269 269 268 268 268 267 267 267 267 267 266 266 266 266 266 267 267 268 268 269 269 270 270 270 270 271 271 272 272 272 273 273 274 274 275 276 277 278 279 279 280 281 282 283 284 284 285 285 286 285 285 284 284 285 284 284 285 285 286 286 286 286 286 286
278 278 277 277 276 276 276 276 276 276 275 274 274 273 272 271 270 270 270 269 269 268 268 268 267 267 266 266 266 266 266 266 266 266 266 266 267 268 268 269 269 270 270 270 270 270 271 271 271 271 272 272 272 273 273 274 275 275 276 277 278 279 280 281 282 283 284 285 285 285 285 285 285 285 285 284 284 284 285 285 286 286 286 286 286
278 277 276 276 276 275 276 276 275 275 274 273 272 272 271 270 270 269 269 269 268 268 268 267 266 265 265 265 265 265 266 266 266 266 266 267 267 269 269 270 270 270 270 270 270 270 270 271 271 271 272 272 273 273 273 273 273 274 275 275 276 278 280 281 282 283 284 284 284 285 285 285 285 285 284 284 284 284 284 285 285 286 286 286 285
277 276 276 275 275 275 275 275 275 274 273 272 272 271 271 270 270 269 269 269 268 267 266 265 265 265 265 265 266 266 266 266 266 267 267 268 269 270 270 270 270 270 270 270 271 271 271 272 272 272 272 272 272 272 272 272 273 273 274 275 276 277 279 281 282 282 283 284 284 284 284 285 285 285 284 284 283 283 284 285 285 285 286 285 285
276 275 275 275 275 275 275 274 274 273 272 272 271 271 271 270 269 268 269 269 267 265 265 264 265 265 265 266 266 266 266 267 267 268 269 270 270 271 271 271 271 271 271 271 272 272 272 272 272 272 272 272 272 272 272 272 272 273 273 274 275 277 278 280 282 283 283 283 284 284 284 284 284 284 284 283 283 283 284 285 285 285 285 285 285
275 275 275 275 275 275 274 274 273 272 271 271 270 270 271 271 269 267 268 269 268 266 266 266 266 266 266 266 266 267 267 268 268 269 270 271 271 272 272 272 272 272 272 272 272 272 272 272 272 272 272 272 272 272 272 272 272 272 273 274 275 276 278 279 282 283 283 283 283 283 284 284 284 284 284 284 283 283 284 284 285 285 285 285 285
274 274 274 274 274 274 273 273 272 271 271 270 270 270 271 272 271 269 267 268 269 269 268 268 267 267 267 267 267 267 267 268 269 270 271 271 271 272 272 272 272 272 272 272 272 272 272 272 272 271 271 271 271 271 271 271 271 272 272 273 274 276 277 278 280 283 283 283 282 282 283 284 284 284 284 283 283 283 284 284 284 284 284 284 284
274 274 274 274 274 273 273 272 271 271 271 270 270 269 269 271 273 272 270 269 269 270 270 269 268 268 268 267 267 267 267 268 269 270 271 271 271 272 272 272 272 272 272 272 271 271 271 271 271 270 270 270 270 270 270 270 271 271 272 272 273 275 276 277 279 281 282 282 282 282 282 282 283 284 284 284 283 283 283 284 284 284 284 284 284
273 274 273 273 273 273 272 272 271 271 270 270 270 269 269 268 270 272 273 272 271 270 270 270 269 269 269 268 267 267 267 268 268 269 270 270 271 272 272 272 272 271 271 270 270 270 270 270 270 270 270 270 270 270 270 270 270 271 271 272 272 273 275 276 278 280 281 281 281 281 281 281 281 282 283 283 283 283 283 284 284 284 284 283 283
273 273 273 272 272 272 272 272 271 271 270 270 269 269 269 268 267 268 270 272 273 273 272 271 270 269 269 269 269 268 268 269 269 269 269 270 271 272 272 271 271 271 271 270 270 270 270 270 270 270 270 270 270 270 270 271 271 271 271 271 272 273 274 275 276 278 280 281 281 281 281 281 281 281 281 282 283 283 283 284 284 284 283 283 283
273 273 272 272 272 272 272 272 271 271 270 270 269 269 268 268 267 267 267 268 270 272 273 273 272 270 270 270 270 269 269 270 270 270 270 270 271 272 271 270 270 271 271 271 271 271 270 270 270 270 270 270 270 270 271 271 271 271 271 272 272 273 274 275 276 277 278 280 280 280 280 280 281 281 281 281 281 282 282 283 283 283 283 283 282
272 272 272 272 272 272 272 271 271 271 270 270 269 269 268 268 267 267 266 267 267 269 270 272 273 272 272 271 270 270 270 270 270 270 270 269 269 270 270 269 269 269 269 270 270 270 269 269 269 269 270 270 270 270 271 271 271 271 272 272 272 273 274 275 276 277 277 278 279 279 279 279 280 281 281 281 281 281 282 283 283 283 283 282 282
272 272 272 272 272 272 272 272 271 271 270 270 269 269 269 268 268 267 267 267 267 267 268 270 271 272 273 272 271 271 271 271 271 271 270 269 270 270 270 269 269 268 268 268 268 268 269 269 269 269 269 269 270 270 271 271 272 272 272 272 273 273 273 275 276 277 277 278 278 279 279 279 280 280 280 280 280 281 281 282 283 282 282 282 281
272 272 271 271 271 271 272 272 272 271 271 271 270 270 269 269 268 267 267 266 266 267 267 268 268 268 270 271 272 272 272 272 272 272 272 272 271 271 271 270 269 268 267 268 268 268 269 269 270 270 270 270 270 271 271 271 272 273 273 273 273 273 274 275 276 277 278 279 279 279 279 279 280 280 280 280 280 281 282 282 282 282 282 281 281
272 272 271 271 271 271 272 272 272 272 271 271 271 270 270 269 269 268 267 267 267 267 267 267 266 266 267 269 270 269 269 269 270 271 272 272 272 271 271 270 269 269 269 269 269 269 269 270 270 271 271 271 271 272 272 272 272 273 274 274 274 274 274 275 276 277 277 278 279 279 279 279 280 280 280 280 280 281 281 282 282 282 281 281 280
272 271 271 271 271 271 272 272 272 272 271 271 271 271 270 270 269 268 268 268 268 267 267 266 266 266 266 267 266 265 265 267 268 269 270 271 271 271 270 270 270 270 270 270 270 270 270 270 271 271 271 272 272 273 273 273 273 273 274 274 275 275 275 275 276 277 278 278 280 280 280 280 280 279 279 280 280 281 281 282 282 281 281 281 280
271 271 271 271 271 271 272 272 272 271 271 271 271 271 270 270 269 269 269 269 268 268 268 267 267 267 267 267 265 264 265 267 268 268 269 269 269 270 270 270 270 270 270 270 270 270 270 270 271 271 271 272 272 273 274 275 275 274 274 275 275 275 276 276 277 278 279 279 280 280 280 280 279 279 279 280 281 281 281 281 281 281 280 280 279
271 271 271 271 271 271 271 272 271 271 271 271 271 271 270 270 270 270 270 270 269 269 269 269 268 268 268 268 268 267 268 268 268 268 269 269 269 269 269 270 269 269 269 270 270 270 270 271 271 271 272 272 273 274 275 276 277 277 276 276 276 276 277 277 278 279 280 280 280 280 279 279 279 279 280 280 280 280 280 280 280 280 279 279 278
271 271 271 271 271 271 271 271 271 271 271 271 271 271 270 270 270 270 270 270 269 269 269 269 269 269 269 269 269 269 269 269 269 269 269 269 269 269 269 269 269 269 269 270 270 270 271 271 272 272 273 273 273 274 275 277 278 278 278 278 277 277 278 278 279 280 280 280 280 280 279 280 280 280 280 280 280 280 280 280 279 279 278 278 277
270 271 271 271 271 270 271 271 271 271 271 270 270 270 270 270 270 270 269 269 269 269 269 269 269 270 270 270 270 270 270 270 270 269 269 269 269 269 269 269 270 270 270 270 270 270 271 271 272 272 273 273 274 274 275 276 277 278 278 278 278 278 278 278 279 280 280 280 280 279 279 279 280 279 279 279 279 279 279 279 278 278 277 277 276
270 270 271 271 270 270 270 270 270 270 270 270 270 270 270 270 270 270 269 269 269 269 269 269 269 269 269 270 270 270 270 270 270 270 270 270 270 270 270 270 270 270 270 270 270 270 271 271 272 272 273 273 274 275 276 277 277 277 278 278 278 278 278 278 279 280 280 280 280 279 279 279 279 279 278 278 278 278 278 278 278 277 277 276 276
269 270 270 270 270 270 270 270 270 270 270 270 270 270 270 270 270 269 269 269 269 269 269 269 269 269 269 269 269 269 269 269 270 270 270 270 270 270 270 270 271 271 270 270 270 270 270 271 271 272 273 273 274 274 275 277 277 278 278 277 277 277 277 278 278 279 279 279 278 278 278 278 278 278 278 277 277 277 277 277 276 276 276 275 275
269 269 270 270 270 270 270 270 269 269 270 270 270 269 269 269 269 269 269 269 269 269 269 269 269 269 269 269 269 269 269 269 269 269 270 270 270 270 270 270 271 271 271 271 271 271 271 271 271 272 272 273 274 274 275 275 276 276 276 276 276 277 277 277 277 277 277 277 277 277 277 277 277 276 276 276 276 276 276 275 275 275 275 274 274
268 269 269 270 270 270 269 269 269 269 269 269 269 269 269 269 269 269 269 269 269 269 269 269 269 269 269 269 269 269 269 269 269 269 269 270 270 270 270 270 271 271 271 271 271 271 271 271 271 271 272 272 273 273 274 274 274 275 275 275 275 275 275 276 276 276 276 276 276 276 276 276 276 275 275 275 275 275 275 275 274 274 273 273 273
268 268 268 269 269 269 269 269 269 269 269 269 269 269 269 269 269 269 269 269 269 269 269 269 269 269 269 269 269 269 269 269 269 269 269 269 269 270 270 270 270 271 271 271 271 271 271 271 272 272 271 271 271 272 273 273 273 273 273 273 273 273 274 274 274 275 275 275 275 275 275 275 275 275 274 274 274 274 274 274 273 273 273 273 272
268 268 268 268 269 269 269 269 269 269 269 269 269 269 269 269 269 269 269 269 269 269 269 269 269 269 269 269 269 269 269 269 269 269 269 269 269 269 269 270 270 270 271 271 271 271 271 271 271 271 271 271 270 270 271 272 272 272 272 272 272 272 273 273 273 274 274 274 274 274 274 274 274 274 273 273 273 273 273 273 273 273 272 272 272
268 268 267 268 268 268 268 269 269 269 269 269 269 269 269 269 269 269 269 269 269 269 269 269 269 269 269 269 268 268 268 268 269 269 269 269 269 269 269 269 270 270 270 270 271 271 270 270 270 271 271 271 270 270 270 270 271 271 271 271 272 272 272 272 273 273 273 273 273 273 273 273 273 273 273 273 273 273 273 273 272 272 272 272 272
Wind_Speed
13 14 15 16 17 18 19 19 20 20 21 21 21 21 21 22 22 22 22 22 22 21 21 21 20 20 20 20 20 21 21 21 22 23 24 24 24 24 24 23 23 22 22 22 21 22 24 24 24 24 24 28 30 31 33 33 33 35 36 36 38 38 37 39 45 55 58 53 50 49 46 44 45 46 46 45 46 46 47 48 48 49 50 50 50
15 16 17 18 19 20 21 22 23 23 24 24 24 24 24 24 24 24 24 24 25 25 25 25 25 25 24 24 24 23 23 23 23 24 25 25 26 26 26 26 26 25 24 24 23 23 24 25 25 24 23 25 27 28 30 32 32 34 35 35 38 38 37 37 41 49 56 55 49 48 47 45 46 47 46 47 48 47 48 49 49 50 50 51 51
16 18 19 20 21 22 23 24 25 26 26 27 27 27 28 28 28 29 29 28 28 28 28 28 28 28 28 28 28 27 27 27 26 26 26 27 27 27 27 28 28 28 28 27 26 25 25 26 25 25 25 26 26 26 26 28 30 32 35 35 36 38 37 36 39 44 52 54 50 48 47 45 47 47 45 45 46 47 49 50 50 50 50 51 51
18 19 20 21 22 23 24 25 26 27 28 28 29 29 30 31 32 32 33 33 33 32 32 32 32 32 32 32 31 31 30 30 30 29 29 28 29 29 29 29 30 30 31 30 30 28 28 28 27 26 26 27 28 27 26 26 26 28 32 34 35 37 37 35 38 42 47 52 52 48 46 45 47 46 43 42 44 46 49 50 51 52 52 51 51
18 19 20 21 22 23 23 25 27 28 29 29 30 31 31 32 33 34 35 36 36 36 36 36 36 36 36 36 35 34 34 33 33 32 31 30 31 31 31 31 31 31 31 32 32 31 31 31 29 28 28 28 28 28 28 27 27 26 28 30 32 35 36 36 38 40 43 49 52 49 45 45 46 45 43 42 43 45 48 50 51 53 53 53 53
19 20 21 22 23 23 24 26 28 30 30 31 31 32 33 34 35 36 37 37 38 38 38 38 38 39 39 39 39 38 37 37 36 35 34 33 33 33 33 33 33 33 33 32 32 33 33 33 32 31 30 30 30 29 29 29 29 28 28 29 29 31 34 36 38 39 42 46 50 49 47 46 45 45 45 44 44 45 47 50 52 53 54 55 56
18 20 21 23 23 24 24 25 27 28 30 31 33 34 35 36 37 38 38 39 39 40 40 40 40 40 41 41 41 41 41 40 39 38 37 36 35 35 35 36 36 36 35 35 35 34 34 34 34 34 33 33 32 31 31 30 30 31 30 30 29 29 32 34 36 38 41 45 48 48 47 46 45 45 45 43 44 46 47 49 52 54 56 57 57
18 19 20 21 23 24 25 26 26 27 29 32 33 35 36 38 39 39 40 40 41 41 42 42 42 42 42 42 42 42 43 43 42 42 42 41 40 40 39 39 39 39 39 39 38 38 38 37 37 36 35 35 34 34 33 32 32 32 32 31 30 30 31 32 34 37 40 43 47 48 47 45 45 45 43 41 44 48 49 49 51 53 55 57 57
20 20 22 23 24 26 27 29 29 30 31 33 35 36 37 39 40 41 41 42 43 43 43 44 44 44 43 43 43 43 44 44 44 45 46 46 46 46 46 45 45 44 44 43 42 41 41 41 40 39 38 37 37 36 35 34 34 34 33 32 32 32 32 32 33 35 38 41 45 48 46 45 46 45 43 43 45 47 48 48 50 51 53 55 57
21 22 23 24 25 26 28 29 30 31 32 34 35 37 38 40 42 43 43 44 44 44 44 44 44 45 45 45 46 46 46 46 46 46 47 49 50 51 51 50 49 49 48 48 48 46 45 44 44 43 43 42 40 39 38 36 36 36 35 34 33 33 33 33 34 35 37 40 44 46 45 45 47 46 45 46 44 43 44 47 50 51 51 53 56
24 24 24 25 25 27 28 29 31 32 33 35 37 38 40 42 43 43 43 43 43 43 44 44 45 46 47 48 49 49 50 49 49 49 50 51 53 54 53 53 53 52 52 52 52 52 51 50 49 47 46 45 44 43 41 39 38 37 37 36 35 35 34 35 35 35 37 39 42 44 44 47 49 46 44 44 43 42 43 45 47 50 51 54 56
27 26 26 27 28 30 31 32 33 34 35 36 37 38 39 40 41 41 42 42 43 44 45 46 47 48 49 50 51 52 53 52 52 54 55 55 57 55 53 53 54 54 54 54 55 56 56 56 55 53 51 49 48 47 46 44 42 40 39 38 38 37 37 37 37 36 37 38 40 43 44 47 49 46 43 42 42 41 42 42 44 48 51 54 56
28 29 29 30 32 33 34 35 36 36 36 36 36 36 37 38 40 42 43 45 46 48 49 50 51 51 52 53 54 55 55 55 55 57 58 58 58 56 52 51 52 53 55 56 56 57 57 57 57 58 57 55 53 52 50 49 47 44 42 40 40 40 39 39 39 38 38 38 40 43 43 44 47 47 44 42 40 40 41 42 43 46 48 52 55
30 31 32 33 35 35 36 36 36 36 35 35 36 38 39 41 43 45 47 48 50 51 52 53 54 54 55 55 56 57 58 58 58 58 58 58 57 55 51 50 51 52 53 55 56 56 57 56 56 58 59 58 57 56 54 53 51 50 47 44 42 42 41 41 41 40 40 39 40 42 42 42 45 46 45 42 40 40 41 41 42 43 45 48 49
31 32 33 35 35 36 36 36 35 35 36 38 40 42 44 46 47 48 49 51 52 53 53 54 55 56 56 55 56 57 59 59 58 58 57 57 56 54 51 51 51 52 54 55 55 55 55 54 54 55 57 57 57 57 56 55 54 53 52 50 47 44 43 43 43 42 42 41 41 42 41 41 43 44 45 45 43 42 41 40 39 39 40 41 44
32 33 34 34 35 35 35 35 36 38 40 42 44 45 47 48 49 50 51 52 53 53 54 54 55 56 56 55 55 57 59 59 58 57 56 56 55 53 51 52 52 53 55 56 56 55 54 52 53 54 55 56 57 57 56 54 53 52 53 53 52 49 47 45 44 43 43 42 43 43 42 41 40 41 43 44 45 45 42 39 37 36 37 40 43
33 34 34 34 34 34 35 37 39 41 43 45 46 47 48 49 49 50 51 52 53 53 54 54 55 55 56 55 55 57 59 59 56 55 55 54 52 50 50 52 53 55 57 58 57 56 55 54 53 52 53 55 56 56 53 51 49 50 52 53 54 53 51 48 45 44 44 43 43 43 43 42 40 39 40 41 43 44 42 41 41 39 39 42 45
35 35 34 34 35 36 38 40 42 43 45 46 47 48 48 49 49 49 49 51 53 53 54 55 56 55 55 55 54 55 57 57 54 52 52 50 47 45 46 48 51 53 55 56 56 56 57 57 54 52 52 53 52 50 48 46 47 49 50 52 53 54 54 51 47 45 44 44 44 43 43 43 42 40 38 38 39 39 40 45 46 42 40 44 47
35 35 35 36 37 39 40 41 42 43 44 45 45 46 47 48 48 48 49 51 53 54 54 55 56 55 53 53 52 51 53 53 50 47 45 43 39 37 38 41 44 47 48 50 53 54 55 56 54 50 49 49 47 45 44 43 45 48 49 50 52 54 55 53 49 46 45 45 44 44 44 44 44 41 39 37 36 36 39 45 47 44 44 47 47
35 36 37 38 40 40 40 41 41 42 43 43 44 45 46 47 48 49 50 51 52 54 54 53 55 54 51 49 49 47 46 47 45 40 37 36 32 31 33 36 39 42 44 45 49 51 52 52 52 49 46 45 46 46 44 43 43 45 47 49 52 53 54 52 50 47 46 45 45 45 44 45 44 42 40 39 37 36 38 42 46 47 47 49 47
37 38 40 41 41 41 40 40 41 41 41 42 44 45 46 47 48 49 50 51 52 53 52 51 51 50 47 45 44 42 40 40 39 35 32 31 29 28 31 34 35 38 42 43 44 46 47 48 48 46 42 42 43 44 44 44 43 44 46 49 51 51 51 50 49 47 46 46 45 45 45 45 45 44 43 42 40 38 37 39 43 47 50 51 49
39 41 42 42 41 41 40 39 40 40 41 42 44 45 46 46 47 48 49 50 50 50 50 48 47 46 44 41 40 39 36 34 33 31 29 28 28 27 30 33 33 35 40 43 43 43 44 45 45 43 40 39 40 40 40 40 39 41 43 45 46 47 47 48 47 46 47 46 46 46 46 45 45 45 45 44 43 41 38 37 39 43 48 52 51
41 42 42 42 41 40 40 39 39 40 41 42 43 45 45 45 46 46 46 47 47 47 46 44 43 44 42 40 38 36 34 31 30 29 28 28 28 29 31 33 33 34 39 43 44 43 44 45 45 43 41 41 42 42 42 42 42 43 43 43 44 44 45 46 47 46 47 46 45 46 46 46 45 45 45 44 44 42 39 36 36 38 42 48 51
41 42 41 40 39 39 39 39 40 40 41 42 42 44 44 44 44 43 42 42 43 43 42 41 41 41 41 39 37 34 32 31 30 30 30 30 30 31 32 33 33 34 36 40 41 42 43 42 42 41 41 41 43 43 43 44 44 44 43 43 44 45 45 46 46 46 46 46 45 45 46 46 46 45 44 43 42 40 37 34 33 33 36 41 46
41 41 40 39 38 38 39 39 40 40 40 40 41 42 42 41 41 40 39 38 39 40 39 39 38 38 38 38 37 35 34 35 35 35 35 34 33 32 30 30 32 33 35 38 39 40 41 41 40 40 40 40 40 42 43 43 42 42 40 39 40 44 46 47 45 45 47 46 44 44 45 45 45 44 42 41 40 38 35 32 31 31 32 36 40
39 39 38 37 37 37 38 39 39 39 39 38 39 39 38 38 38 37 36 36 37 37 37 36 36 36 37 39 40 40 39 39 39 39 38 37 34 32 31 31 33 33 35 37 38 39 39 40 40 40 39 38 37 40 43 44 44 44 43 40 38 39 44 47 47 46 47 47 44 44 45 44 43 42 41 39 38 37 34 33 32 31 31 33 36
37 37 35 35 35 36 37 38 39 39 38 37 37 36 35 34 35 35 35 35 35 34 34 34 34 36 39 40 41 41 41 41 40 39 38 37 36 35 35 36 36 36 37 39 40 40 40 40 40 40 40 39 39 39 40 42 43 46 47 45 41 37 38 44 48 48 47 46 44 44 45 44 41 40 39 39 38 37 34 32 32 31 30 31 34
35 34 34 34 35 35 36 37 37 37 37 36 35 34 33 33 33 33 32 32 33 33 33 34 35 37 38 40 41 42 42 40 39 38 37 36 36 37 37 37 37 38 39 40 41 41 41 41 41 41 41 41 41 40 40 40 41 43 44 44 42 39 36 38 44 47 46 44 43 42 42 42 41 40 39 39 39 37 34 32 32 32 31 30 32
32 32 32 33 34 34 35 35 35 35 35 35 33 32 31 31 33 33 30 29 29 29 31 33 35 35 36 37 38 40 41 40 38 36 34 33 33 34 35 36 37 38 38 38 38 40 40 41 41 41 41 41 41 40 40 39 39 40 40 40 40 40 37 36 40 46 45 41 40 40 39 40 41 39 39 39 38 36 34 32 31 31 31 31 32
31 31 31 32 33 33 34 33 33 33 33 33 33 32 29 28 29 31 29 27 26 26 27 29 30 30 32 34 34 35 37 37 35 31 30 31 31 32 33 34 34 36 36 35 35 37 39 39 39 39 38 38 38 37 37 37 37 38 38 37 37 38 38 36 38 45 46 41 39 38 37 38 39 38 38 38 37 35 34 32 31 31 32 33 32
30 30 30 31 31 32 32 32 31 31 30 30 32 33 31 29 27 28 28 27 26 26 25 24 24 24 27 29 31 32 33 33 31 29 30 32 32 31 31 31 31 32 32 32 33 35 37 38 38 38 37 37 37 37 37 37 37 37 37 35 36 37 38 36 34 38 42 40 39 38 36 36 36 36 37 38 37 35 34 32 31 31 32 33 33
28 29 29 30 30 29 30 29 29 29 29 29 29 31 33 33 32 30 28 28 28 27 24 23 23 24 24 26 29 31 32 32 31 30 31 32 31 29 29 30 31 31 30 29 32 35 36 38 40 40 40 40 40 40 39 39 39 39 38 36 35 36 36 34 31 30 34 33 33 33 34 35 34 34 35 36 35 35 33 32 32 32 32 32 32
26 27 28 29 28 27 27 27 27 27 28 28 28 29 31 33 34 33 31 30 30 28 25 24 25 26 26 26 27 28 30 31 31 31 31 31 30 29 30 31 32 31 30 31 34 36 37 37 39 39 39 39 39 39 39 38 38 38 38 37 37 37 36 34 31 30 32 32 30 29 30 32 32 32 33 33 34 34 34 33 33 33 32 32 32
23 25 26 27 27 26 25 26 26 26 26 27 28 29 29 30 32 34 34 34 34 32 29 28 28 28 28 27 26 26 27 28 29 30 31 30 29 29 30 33 34 33 32 32 34 35 34 35 35 36 36 36 36 36 36 36 35 35 35 36 36 36 36 34 31 28 27 28 27 27 27 28 29 30 31 31 32 33 33 33 34 33 32 32 32
22 23 24 24 24 24 24 24 24 25 26 27 27 28 29 29 30 31 32 34 35 36 34 31 29 29 29 28 26 25 26 26 26 26 28 28 27 28 30 34 35 35 32 31 31 32 33 34 34 35 35 35 35 35 36 36 35 34 34 34 34 32 31 31 30 28 24 22 22 23 24 25 27 29 29 30 31 32 33 34 34 34 32 32 32
21 22 22 22 22 22 22 23 23 24 26 27 27 27 28 29 29 30 30 31 33 35 35 33 31 29 28 27 27 27 26 25 25 26 27 27 27 28 30 33 35 34 33 32 32 32 33 34 35 35 36 36 36 36 36 37 36 35 33 32 32 31 29 28 27 27 25 23 24 24 25 25 27 28 28 29 29 30 31 33 34 33 32 31 31
20 21 21 21 22 22 22 22 23 24 25 26 26 27 28 28 29 29 30 30 31 33 34 34 33 32 30 29 29 29 27 26 26 27 27 27 27 27 28 29 30 31 32 32 33 33 34 35 35 36 36 36 36 37 37 37 37 36 34 31 30 30 29 28 26 25 24 25 26 26 26 26 27 28 28 28 29 29 30 32 33 32 31 30 31
19 19 20 21 22 22 23 23 24 24 25 25 26 27 28 28 29 28 28 29 29 30 31 32 32 33 33 31 29 29 28 28 29 28 27 27 26 25 25 25 25 27 30 30 31 32 33 34 34 34 35 36 36 36 36 36 36 35 33 30 28 26 26 27 27 26 26 27 27 26 25 26 28 28 27 27 28 29 31 32 31 31 30 30 31
17 17 18 20 21 22 23 24 24 24 24 25 25 26 27 27 28 27 27 27 27 27 28 30 30 31 30 29 28 29 30 31 30 28 27 26 24 23 23 24 25 26 28 28 29 30 31 33 33 33 34 34 34 33 33 34 34 33 31 29 26 23 23 26 28 28 26 26 28 27 25 25 27 27 26 26 28 30 31 30 30 29 29 30 30
17 17 17 19 21 22 23 23 23 23 23 24 24 24 25 25 25 25 25 25 26 26 27 28 28 28 26 25 26 28 29 29 27 26 25 25 24 23 24 24 25 26 27 28 30 31 32 32 32 32 33 32 30 30 29 28 28 28 28 26 24 22 21 23 26 26 25 26 28 27 25 24 25 26 26 27 29 30 29 28 27 27 27 28 28
17 17 18 19 20 21 21 21 21 21 22 22 22 23 23 22 22 22 23 24 25 26 26 27 26 25 24 24 23 23 24 24 25 25 25 24 24 24 24 24 25 25 26 28 29 30 31 31 31 30 29 27 26 26 25 22 19 19 19 19 19 19 19 20 22 23 23 24 24 23 23 23 23 24 26 29 29 29 28 26 26 25 26 27 27
16 17 18 19 20 20 20 19 19 19 19 19 20 20 20 20 20 21 22 23 24 25 26 26 26 26 26 26 25 24 25 26 27 26 26 25 24 24 24 24 24 24 24 26 27 29 30 31 31 29 27 24 23 24 23 18 13 11 11 12 14 15 16 16 18 20 21 21 20 19 20 21 22 24 27 28 28 27 26 25 24 24 24 25 26
15 17 17 18 18 19 18 18 17 17 17 17 18 18 17 18 18 20 21 22 23 24 25 26 26 26 27 27 28 28 29 29 29 29 29 27 26 25 25 24 23 22 22 23 25 26 27 28 28 27 24 21 20 20 19 16 12 9 9 10 11 13 14 15 16 18 19 19 19 18 18 20 22 24 26 26 25 25 24 23 22 22 22 23 24
15 16 16 16 17 16 16 16 15 15 15 16 16 16 16 17 17 19 20 21 22 23 24 24 25 26 27 28 28 29 30 31 31 31 31 30 29 28 26 24 23 22 22 23 24 25 26 27 27 26 25 22 20 18 17 16 14 11 10 10 11 13 14 15 16 16 15 15 16 16 16 19 21 22 22 22 23 22 22 21 21 21 21 21 22
15 15 15 15 15 14 14 14 14 14 14 14 14 15 15 16 16 17 19 19 20 21 22 23 24 26 27 28 29 30 30 31 31 31 32 32 31 30 29 27 25 24 23 24 25 25 26 27 27 28 27 26 24 21 20 19 17 15 13 12 11 13 14 15 16 15 12 13 15 15 16 18 19 18 18 19 19 19 19 19 18 19 19 20 20
14 14 14 14 14 14 13 13 13 13 14 14 14 14 15 15 15 16 17 18 19 20 20 22 23 24 26 27 28 29 30 30 30 31 31 31 31 31 31 30 28 27 26 26 26 27 28 28 28 28 27 27 26 24 21 19 17 16 14 12 10 8 7 8 10 10 10 11 13 14 15 15 15 14 15 16 16 16 16 16 16 17 18 19 19
13 14 14 14 13 13 13 13 13 13 13 13 13 14 14 14 15 15 16 17 17 18 19 20 22 23 24 25 26 27 28 29 29 30 30 30 31 31 31 30 30 29 29 28 28 28 29 30 30 29 28 26 25 24 23 20 18 16 15 14 14 12 10 7 5 3 3 4 6 7 8 10 11 12 13 13 13 14 14 14 16 16 17 17 18
13 13 13 13 12 12 12 12 12 12 12 13 13 13 13 13 13 14 15 16 16 17 18 19 20 21 22 23 24 25 26 27 28 28 29 30 30 30 30 30 30 30 29 30 30 29 29 30 31 32 31 30 27 25 23 22 20 19 18 17 17 16 15 13 12 10 8 5 3 1 2 4 7 9 10 11 11 12 13 14 15 16 16 17 17
12 12 12 12 12 12 12 12 12 13 13 13 12 12 12 12 12 13 14 14 15 17 18 18 19 20 21 22 23 23 24 25 26 27 28 28 29 30 30 30 29 29 29 30 31 31 31 31 31 32 34 34 33 31 28 26 24 23 22 21 20 19 17 16 15 13 11 9 8 6 4 3 5 7 8 9 10 11 12 14 15 15 15 16 17
11 11 11 11 11 11 12 12 12 12 12 12 11 11 11 11 11 12 12 13 14 15 16 17 18 19 20 21 22 23 23 24 25 26 26 27 28 28 29 29 29 29 29 29 30 31 31 32 32 31 32 33 34 34 33 31 29 28 26 25 24 22 21 20 19 17 15 13 11 9 7 6 6 7 8 8 9 10 11 12 13 14 15 15 16
11 11 11 11 11 11 11 11 11 11 11 11 10 10 10 10 10 11 12 12 13 14 15 16 17 18 19 20 21 22 23 24 24 25 25 26 26 27 28 28 28 29 29 29 29 29 29 30 30 31 30 31 31 32 32 31 30 29 28 27 26 25 24 23 22 20 18 17 15 13 10 9 8 9 9 9 9 10 11 11 12 13 14 14 15
Wind_Direction
11 8 6 4 1 359 356 353 351 349 348 346 344 344 342 340 339 337 336 337 334 333 331 329 326 322 319 316 314 312 311 311 312 313 314 315 317 320 321 320 320 318 315 311 308 306 303 302 301 299 294 287 280 275 270 266 263 261 260 261 261 259 262 265 267 268 269 268 269 269 268 267 265 262 260 258 257 256 256 255 254 250 246 243 241
5 3 1 359 357 354 351 347 345 343 342 341 340 339 338 336 334 332 331 331 329 329 328 326 325 324 321 320 317 315 313 311 311 310 310 311 311 314 317 318 317 317 316 315 313 310 306 303 303 304 303 297 291 286 279 274 269 265 262 261 261 260 260 262 266 268 269 269 269 269 267 266 264 263 261 259 258 257 256 256 255 254 252 248 245
356 353 351 349 347 345 342 340 338 337 336 335 334 333 333 332 331 329 328 327 325 324 323 321 320 318 317 316 315 314 313 312 311 310 310 310 309 309 310 312 313 313 312 313 313 312 310 307 307 307 305 301 298 297 292 285 278 273 268 265 263 262 261 262 264 266 268 269 270 269 268 266 264 263 262 262 260 258 256 255 255 256 255 252 249
339 338 337 336 335 335 334 333 332 331 330 330 329 328 328 327 326 325 324 323 321 320 319 318 317 315 314 313 311 311 310 310 309 308 308 308 307 306 305 305 305 306 306 307 308 308 308 307 308 309 306 303 301 301 300 296 290 283 277 272 267 265 264 263 262 264 267 270 269 269 269 267 265 264 262 261 260 258 257 256 255 254 254 253 252
325 325 324 324 326 326 326 326 325 324 324 324 324 323 323 322 321 321 320 319 317 317 316 315 315 314 313 312 310 309 309 309 307 306 306 306 305 304 303 301 300 299 299 300 301 302 303 303 304 306 305 303 302 302 301 299 297 292 286 280 274 270 267 265 263 263 266 268 268 270 270 269 266 264 261 258 257 257 256 255 254 254 253 252 252
318 318 316 315 315 314 315 316 316 316 316 316 316 316 316 316 315 315 315 315 314 313 313 312 312 311 310 310 310 309 309 308 306 306 305 304 304 303 301 300 299 297 296 296 296 297 298 298 299 300 300 300 300 301 300 299 297 295 292 289 283 276 271 268 265 264 264 265 267 270 270 269 267 265 261 258 256 256 255 255 254 253 253 252 251
310 311 310 309 309 309 309 309 309 308 307 307 308 309 310 310 310 310 310 310 310 310 310 309 308 308 307 307 308 308 308 307 306 306 305 305 304 302 301 300 300 298 297 296 295 295 294 294 294 294 294 295 295 297 297 297 296 295 293 293 289 282 276 272 269 267 265 265 266 268 269 269 268 266 264 261 258 255 254 254 253 252 252 252 252
291 293 295 296 298 298 299 301 301 298 296 298 301 303 305 306 306 307 307 307 307 307 307 306 305 305 305 305 305 305 305 305 305 306 307 307 306 304 302 301 300 299 298 297 295 294 293 292 291 291 291 290 290 291 291 292 293 293 292 292 291 287 283 278 273 269 267 267 267 267 269 270 268 267 265 261 256 252 251 251 253 253 252 252 253
284 287 290 292 292 292 293 295 296 295 293 294 296 298 300 301 303 303 304 304 304 304 304 304 303 303 303 303 303 303 302 302 302 304 305 306 305 305 304 303 302 300 298 297 295 293 292 291 290 289 289 289 288 286 285 286 287 289 290 290 289 287 285 282 277 272 268 267 267 267 267 268 267 266 264 260 257 255 253 252 253 254 254 254 253
295 298 299 299 297 295 295 295 294 293 292 291 292 293 294 296 298 299 300 300 301 301 301 301 301 302 302 302 301 301 300 299 299 300 301 302 302 303 303 302 302 301 300 298 295 292 291 289 288 288 287 287 286 285 284 282 281 282 283 285 286 285 284 281 279 275 270 267 267 267 266 266 265 264 263 262 261 260 257 254 252 253 254 255 254
307 308 308 306 303 301 298 296 294 291 289 288 288 290 291 293 295 297 298 298 299 299 299 299 299 299 300 300 299 299 298 297 297 297 297 298 299 300 300 300 299 299 298 297 295 293 291 289 287 286 285 284 284 283 283 281 279 277 277 278 280 281 281 280 278 277 273 269 269 268 265 265 265 264 263 264 262 260 257 255 253 252 251 252 253
308 307 307 306 304 302 300 297 294 291 290 290 290 292 293 295 296 298 298 298 298 298 297 297 297 297 297 296 296 295 295 295 295 295 295 296 297 298 299 298 297 296 294 294 293 292 291 289 288 286 283 282 282 282 281 280 279 277 275 274 274 276 277 277 277 277 274 272 272 270 268 267 268 265 261 261 261 260 258 255 253 252 250 250 251
305 305 305 305 304 302 300 298 297 297 296 296 296 297 297 297 297 297 297 297 297 297 296 296 296 295 295 294 293 293 292 292 292 293 293 294 295 296 297 296 294 293 291 290 289 288 288 288 287 286 284 283 281 280 279 279 279 278 276 273 271 271 272 273 275 275 275 272 270 271 273 271 269 267 263 260 259 260 258 255 253 251 249 249 251
305 304 304 304 303 302 301 301 300 300 300 300 299 299 299 299 299 298 298 298 297 297 297 296 295 295 295 294 294 292 291 291 291 290 291 292 293 294 294 293 291 289 288 287 286 285 285 285 284 284 283 282 281 280 279 278 278 278 278 276 272 270 268 269 270 272 272 271 269 272 277 275 272 272 267 259 256 257 256 256 256 253 252 254 256
305 304 303 304 303 303 303 302 302 301 301 301 300 300 300 300 300 300 300 299 299 298 298 297 296 296 295 294 294 293 291 291 291 291 291 291 291 292 291 290 288 287 285 284 284 283 283 283 282 281 281 280 279 279 278 278 277 277 277 276 274 272 268 265 266 267 270 272 271 274 278 277 275 274 269 260 256 255 255 257 260 260 259 259 259
304 304 304 304 304 303 303 302 302 302 302 302 302 302 302 301 301 301 301 300 299 299 298 298 297 296 296 295 294 293 292 292 292 291 291 290 290 290 289 287 286 285 284 283 282 282 281 281 280 279 278 278 277 277 278 278 277 276 275 273 273 272 269 266 265 264 266 269 270 273 277 277 275 273 270 263 258 256 255 256 258 258 255 254 253
306 306 306 304 303 303 303 303 303 304 304 304 303 303 303 303 303 303 302 301 300 300 299 298 298 297 296 296 295 293 292 292 292 292 291 290 290 290 288 287 285 284 282 281 281 280 279 278 277 277 277 277 276 276 277 277 276 274 273 272 271 270 270 268 266 263 263 265 267 269 272 275 273 271 269 265 260 257 254 251 251 250 248 247 247
306 306 304 304 303 304 305 305 305 305 305 305 305 305 305 304 304 304 303 302 301 300 300 299 298 297 296 296 295 294 293 292 292 292 292 291 292 291 290 288 286 284 283 283 281 280 278 277 276 275 275 276 276 276 275 274 272 271 271 271 270 269 268 267 266 265 262 262 264 265 267 270 270 270 268 265 260 255 250 249 249 246 244 244 245
305 304 304 305 306 306 307 307 307 307 306 307 307 306 306 305 305 304 303 303 302 301 300 299 298 297 297 296 296 295 295 294 294 295 294 294 294 294 293 290 288 286 286 285 283 281 279 279 278 276 275 274 274 274 273 272 270 269 269 268 268 267 266 265 265 265 263 262 262 263 264 266 267 268 268 265 261 254 249 249 248 244 242 244 244
304 304 306 307 308 309 309 308 308 308 308 308 308 307 307 307 306 305 304 303 302 301 301 300 299 298 298 298 298 297 298 297 298 299 298 297 296 295 292 289 287 287 286 285 283 283 282 282 282 280 278 276 275 274 272 270 268 268 267 266 265 266 267 266 264 263 264 264 262 262 263 263 264 265 265 263 261 256 250 248 246 243 242 243 242
305 306 308 309 309 310 310 310 310 311 311 310 309 309 309 308 307 306 305 304 303 302 301 301 300 300 301 301 301 301 302 302 301 302 302 299 297 295 292 288 287 287 286 285 285 285 285 284 283 283 283 281 279 277 274 270 267 265 264 263 263 265 267 267 265 263 264 265 263 261 261 260 260 261 262 262 261 258 253 248 246 243 242 242 241
307 308 309 310 310 311 312 312 313 313 313 312 311 310 309 308 307 306 305 305 304 303 302 303 303 303 303 304 304 305 306 306 305 305 305 303 300 297 293 291 291 290 289 287 287 287 286 285 283 284 284 283 282 280 277 274 270 267 264 262 262 263 263 265 265 264 263 263 261 260 259 258 257 257 259 260 261 261 257 252 248 245 244 243 241
308 309 310 310 311 313 314 314 315 315 314 313 312 310 309 309 308 307 307 306 305 304 304 306 306 305 306 307 307 308 308 309 309 310 310 310 306 300 295 293 292 290 288 288 289 289 289 288 286 286 285 283 281 280 279 276 274 272 269 266 263 261 259 260 262 262 261 259 257 256 256 256 255 255 256 259 262 263 262 258 255 252 249 247 244
309 309 310 311 313 314 315 316 316 316 315 313 311 310 310 310 309 309 308 307 306 306 307 308 309 309 309 309 310 311 313 314 316 316 316 315 308 300 296 293 292 290 288 289 291 293 294 294 293 291 288 284 280 279 278 276 274 274 273 271 267 263 259 257 257 257 257 255 253 252 252 253 254 254 255 259 262 264 266 266 265 260 257 253 248
309 309 310 312 314 315 316 317 316 315 314 313 312 312 312 312 310 310 310 308 308 308 310 311 311 311 312 314 315 317 320 321 322 321 320 317 310 305 303 300 295 292 291 291 292 293 292 292 292 292 291 289 285 281 278 276 275 274 273 274 272 267 262 257 255 254 254 251 248 248 250 252 253 255 257 259 261 264 267 269 269 265 262 258 252
309 309 311 313 315 317 317 316 316 315 315 315 314 314 314 313 311 311 311 311 311 311 313 314 315 316 317 318 319 321 323 323 321 319 318 316 315 316 317 312 305 299 295 293 293 293 293 294 295 294 293 292 289 285 281 278 277 276 275 276 277 272 263 257 255 254 252 250 248 247 248 250 253 255 257 258 258 261 265 266 267 266 263 260 255
308 310 313 315 317 318 317 317 317 317 317 317 316 315 316 314 312 312 313 313 314 316 317 318 320 320 319 318 318 319 319 318 316 315 315 315 316 317 316 313 310 305 300 298 297 298 299 301 300 297 294 293 291 290 288 284 280 278 277 277 278 275 266 258 253 252 251 249 248 247 248 249 250 251 253 254 256 259 262 263 264 265 264 261 258
310 312 315 317 318 319 318 318 319 320 319 318 318 318 318 316 313 313 316 319 320 320 321 321 319 317 315 314 314 314 313 313 313 314 314 312 311 310 309 307 305 302 299 299 300 299 299 300 298 296 296 296 294 294 293 290 285 281 279 278 276 274 271 263 254 249 249 247 246 247 247 246 247 247 249 252 254 257 259 261 262 263 263 261 258
311 314 317 318 320 320 320 321 322 322 321 320 319 320 319 318 317 318 322 326 325 319 313 311 310 309 308 309 309 309 309 310 311 311 310 311 310 309 307 305 303 301 299 299 299 297 296 296 296 296 296 296 295 294 294 293 291 287 281 278 276 273 274 273 258 247 245 246 244 244 245 245 245 247 247 249 252 254 256 258 259 260 259 257 255
313 316 319 321 322 322 323 324 324 323 323 322 321 320 320 319 320 323 326 330 331 323 311 304 303 304 304 304 305 305 305 307 310 311 313 314 312 309 305 304 303 301 300 300 298 297 296 296 296 296 296 295 295 296 295 294 294 292 286 282 277 270 272 277 263 244 240 243 244 242 243 244 245 247 247 248 251 252 253 256 258 257 255 253 252
315 318 321 323 324 325 325 326 326 325 326 325 324 324 326 325 324 327 331 333 332 326 320 316 314 310 306 304 304 305 305 307 312 316 315 312 309 307 306 305 304 302 302 303 301 298 297 296 296 295 295 295 293 294 295 293 293 293 290 286 280 272 271 277 267 244 235 240 243 242 241 242 243 246 247 248 250 251 251 254 255 253 252 251 250
317 320 323 324 325 327 327 327 328 327 328 328 328 330 333 333 331 330 331 333 332 329 326 327 326 323 319 314 310 308 309 310 312 313 310 308 308 310 311 309 305 304 305 305 300 295 293 293 293 293 293 293 293 292 292 291 290 290 289 285 282 276 272 277 275 255 240 239 241 239 240 241 241 243 247 249 250 251 252 253 252 251 250 249 247
318 322 324 324 326 328 329 329 330 330 330 332 334 336 337 337 336 333 330 329 331 331 331 333 332 330 328 325 321 317 314 312 311 311 310 309 310 312 312 308 303 301 302 301 296 293 292 292 293 294 294 294 294 293 292 290 288 287 286 282 280 277 272 274 278 266 249 243 243 243 244 246 244 243 246 249 250 251 252 253 252 250 248 246 243
320 323 324 324 326 329 331 331 332 332 333 336 338 339 338 337 336 335 332 331 332 333 335 337 338 335 333 332 331 327 321 316 314 313 312 311 312 312 309 304 299 296 296 294 292 293 296 296 297 297 296 296 297 295 293 291 288 286 284 281 279 277 273 273 278 271 253 244 243 242 243 248 248 245 245 247 249 250 251 252 251 248 245 243 241
321 323 324 324 325 329 333 334 333 335 337 339 340 339 338 337 335 334 333 333 332 333 336 338 339 338 337 335 334 330 325 319 316 316 316 316 317 315 309 305 304 303 302 300 298 299 302 302 301 300 299 299 300 298 296 294 290 288 285 282 279 278 274 271 275 275 263 249 245 243 243 248 251 250 248 247 247 247 248 249 249 247 245 242 239
322 324 325 325 327 331 334 336 337 339 340 340 339 338 337 337 336 334 333 332 331 331 334 336 336 336 337 338 335 331 327 325 324 326 326 323 320 317 311 309 311 313 313 312 311 309 307 305 304 303 302 302 301 300 298 296 292 289 287 282 276 273 270 267 270 273 270 261 254 251 250 250 251 250 249 248 246 246 248 249 249 248 245 242 239
323 326 328 329 331 334 337 340 342 343 341 340 339 339 339 339 337 335 334 333 332 331 332 334 335 336 338 341 339 333 331 333 335 334 330 325 322 319 315 314 315 317 317 317 317 315 311 309 307 306 304 303 301 300 299 297 295 292 289 282 273 267 264 263 263 266 267 262 256 252 250 250 249 249 248 247 245 244 245 247 247 246 244 241 238
325 330 331 332 334 337 340 343 345 344 344 343 343 344 343 342 341 339 337 336 335 335 335 337 338 339 339 340 339 337 337 340 341 339 336 334 331 328 326 326 326 325 323 323 322 319 315 312 310 307 304 301 299 298 296 296 295 294 290 284 274 265 259 258 257 259 259 256 253 252 251 249 247 248 247 245 243 242 243 243 243 242 240 238 234
328 333 335 335 338 340 342 344 345 347 349 350 350 350 349 349 347 345 343 342 343 344 345 345 345 344 343 342 343 342 339 337 337 338 339 338 337 337 338 338 337 335 332 330 329 325 321 318 316 312 309 306 303 300 297 295 293 291 289 285 277 265 256 254 255 257 257 253 250 252 253 248 245 247 247 244 243 243 242 242 242 241 240 237 235
332 338 340 341 343 343 343 345 348 352 355 356 356 357 357 356 354 353 352 352 354 356 356 355 355 354 354 354 351 342 335 333 337 341 342 342 342 344 346 344 342 342 341 339 336 333 329 326 325 321 317 313 311 308 303 297 291 287 284 281 274 263 254 251 251 253 255 253 250 250 251 247 244 245 245 243 242 243 242 242 241 241 240 238 236
336 342 346 346 346 345 345 348 353 358 1 1 2 4 4 4 4 5 5 6 7 8 9 8 8 9 10 10 4 352 346 349 354 354 352 351 350 350 350 349 348 348 347 345 343 340 337 337 337 333 326 323 323 322 318 310 299 290 282 276 267 257 250 249 248 248 249 248 246 246 246 244 243 243 242 241 241 240 239 239 238 236 235 233 232
340 345 348 348 346 346 348 353 359 3 5 6 9 11 11 12 15 18 19 19 19 18 18 19 20 22 23 24 22 16 13 13 12 8 6 4 1 359 358 356 354 354 352 351 350 348 346 347 349 345 340 339 340 338 332 327 318 303 289 279 267 257 254 256 254 247 240 236 235 238 240 240 241 242 242 241 239 236 235 234 233 232 231 229 228
346 348 347 346 346 347 350 355 1 5 7 10 13 15 15 18 22 26 27 28 27 25 23 24 26 28 29 30 29 28 26 25 23 20 17 15 11 8 5 2 360 0 1 360 359 358 356 356 358 357 354 355 356 349 341 337 330 315 303 294 282 273 272 267 253 240 233 230 229 233 236 239 240 241 239 237 234 231 230 230 229 227 227 225 223
349 348 344 343 345 348 351 355 1 6 9 11 12 13 15 19 25 29 31 32 32 31 28 27 28 29 30 31 31 31 31 29 28 26 24 22 19 16 13 11 9 8 10 11 11 10 7 6 8 10 10 10 12 10 4 358 352 339 324 311 296 288 283 270 251 243 244 241 235 231 232 237 240 239 235 231 230 227 224 224 223 222 221 220 218
349 345 341 341 344 348 351 355 359 3 6 9 9 11 14 19 25 30 33 35 36 36 34 33 32 32 31 31 31 32 31 31 30 29 28 26 25 23 21 20 19 19 20 22 22 21 19 17 16 18 20 21 22 24 25 23 16 6 353 337 314 295 279 261 248 247 252 247 239 236 235 236 237 236 230 226 225 223 220 219 219 218 216 214 213
344 341 339 339 343 347 351 356 359 1 3 5 7 10 16 20 25 30 33 35 36 37 36 36 36 35 34 33 33 32 32 31 31 31 30 29 28 27 26 26 27 27 29 31 32 32 32 29 25 24 25 25 27 29 32 34 32 26 22 18 7 343 309 275 257 255 256 251 244 241 238 233 229 225 222 218 216 214 213 212 212 211 210 209 207
338 336 337 339 343 346 351 355 358 360 3 6 8 11 17 20 24 28 32 34 35 36 36 36 37 36 36 35 34 33 33 32 31 31 31 31 30 30 29 29 30 31 32 35 37 39 41 40 39 35 32 31 32 33 35 39 43 46 50 53 54 52 48 42 35 11 318 282 259 245 236 225 215 209 207 206 205 204 204 203 203 203 203 201 199
332 332 335 338 342 346 351 355 358 360 3 7 9 13 17 19 22 27 29 30 31 32 32 33 34 35 35 35 34 33 33 33 32 32 32 32 32 31 30 30 32 33 34 35 37 39 41 44 46 46 43 40 39 39 40 41 43 47 51 55 57 59 60 61 63 64 61 57 61 117 199 206 200 196 193 194 195 195 195 195 194 193 191 190 189
327 329 332 337 342 347 351 355 359 1 3 6 9 12 15 16 20 24 27 28 28 28 27 27 29 30 31 32 32 33 33 33 33 33 33 33 33 33 32 31 32 33 35 37 38 38 39 41 45 49 50 48 46 46 47 49 49 50 51 51 52 54 59 62 64 65 66 69 74 81 93 126 161 174 178 181 185 188 189 187 184 182 181 181 180
323 326 331 336 342 348 350 354 358 360 1 3 5 8 11 14 16 19 23 24 25 25 24 23 23 24 25 26 27 28 29 30 30 31 31 32 32 33 33 33 33 32 33 36 38 40 40 40 40 44 48 51 50 48 47 48 51 53 53 53 54 57 60 63 64 65 67 70 74 77 82 100 128 146 156 164 170 174 175 174 173 173 175 177 176
320 324 329 334 339 345 348 350 354 355 356 358 0 3 6 9 10 13 16 17 18 20 21 20 19 20 21 21 22 23 24 25 26 26 28 29 30 31 32 32 33 33 33 33 35 38 40 41 40 41 43 46 49 50 49 48 48 50 53 55 57 59 61 63 65 67 67 69 72 76 82 93 108 120 130 139 148 155 158 160 163 166 169 171 170